Regional Weather Roundup
Issued by NWS Raleigh/Durham, NC

Home | Current Version | Previous Version | Text Only | Print | Product List | Glossary On
Versions: 1 2 3 4 5 6 7 8 9 10 11 12 13 14 15 16 17 18 19 20 21 22 23 24 25 26 27 28 29 30 31 32 33 34 35 36 37 38 39 40 41 42 43 44 45 46 47 48 49 50
000
ASUS42 KRAH 260910
RWRRAH
NORTH CAROLINA WEATHER ROUNDUP
NATIONAL WEATHER SERVICE RALEIGH NC
500 AM EDT FRI MAY 26 2017

NOTE: "FAIR" INDICATES FEW OR NO CLOUDS BELOW 12,000 FEET WITH NO
SIGNIFICANT WEATHER AND/OR OBSTRUCTIONS TO VISIBILITY.

NCZ001-053-055-056-065-067-261000-
WESTERN NORTH CAROLINA

CITY           SKY/WX    TMP DP  RH WIND       PRES   REMARKS
ASHEVILLE      PTCLDY    53  47  79 CALM      29.95R
JEFFERSON      CLOUDY    55  48  79 W15G25    29.89R
MORGANTON      PTCLDY    61  50  67 SW3       29.93R
HICKORY        PTCLDY    60  50  69 SW7       29.88R
RUTHERFORDTON  CLEAR     57  51  79 CALM      29.92R
MOUNT AIRY     PTCLDY    61  51  70 SW5       29.87R
BOONE          CLOUDY    55  46  71 W15G23    29.92R
$$

NCZ021-022-025-041-071-084-088-261000-
CENTRAL NORTH CAROLINA

CITY           SKY/WX    TMP DP  RH WIND       PRES   REMARKS
CHARLOTTE      CLEAR     58  51  78 W8        29.90R
GREENSBORO     CLEAR     57  53  86 SW9       29.83R
WINSTON-SALEM  CLEAR     59  51  75 SW5       29.85R
RALEIGH-DURHAM CLEAR     59  54  83 W9        29.83R
FORT BRAGG     CLEAR     62  52  70 W8        29.85R
FAYETTEVILLE   CLEAR     63  54  72 SW8       29.86R
BURLINGTON     PTCLDY    59  53  80 SW10      29.82R
LAURINBURG     CLEAR     58  53  84 SW6       29.88R
$$

NCZ011-015-027-028-043-044-047-080-103-261000-
NORTHEASTERN NORTH CAROLINA

CITY           SKY/WX    TMP DP  RH WIND       PRES   REMARKS
ROCKY MT-WILSO CLEAR     62  55  77 SW9       29.80R
GREENVILLE     CLEAR     63  54  72 W10G16    29.83R
WASHINGTON     CLEAR     63  54  73 SW12G17   29.81R
ELIZABETH CITY CLEAR     63  56  78 SW15      29.74R
MANTEO         CLEAR     65  56  71 W15G24    29.77R
CAPE HATTERAS  CLEAR     70  56  61 W15G26    29.80R
$$

NCZ078-087-090-091-093-098-101-261000-
SOUTHEASTERN NORTH CAROLINA

CITY           SKY/WX    TMP DP  RH WIND       PRES   REMARKS
LUMBERTON      CLEAR     61  54  77 W7        29.88R
GOLDSBORO      CLEAR     62  58  86 SW8       29.82R
KINSTON        CLEAR     62  54  74 CALM      29.84R
KENANSVILLE    CLEAR     61  54  77 SW9       29.86R
NEW BERN       CLEAR     63  55  75 SW9       29.84R
CHERRY POINT   CLEAR     66  53  63 W14       29.85R
BEAUFORT       CLEAR     68  56  65 W17G23    29.84R
JACKSONVILLE   CLEAR     63  55  75 W10       29.85R
WILMINGTON     PTCLDY    64  54  69 W10       29.88R
$$




USA.gov is the U.S. government's official web portal to all federal, state and local government web resources and services.